Location: Street
(51.1247°N, 2.7429°W)
Time: 01:58:02
(UTC+00:00)

deb Explorer IX - Pass Details

Date: 07 December 2020
Orbit: 536 x 1104 km, 38.8° (Epoch: 20 January)

Event Time Altitude Azimuth Distance (km) Brightness Sun altitude
Rises 13:19:24 0° 221° (SW) 3,907 ? 14.3°
Reaches altitude 10° 13:22:55 10° 206° (SSW) 2,925 ? 14.1°
Maximum altitude 13:28:01 21° 161° (SSE) 2,143 ? 13.8°
Drops below altitude 10° 13:32:50 10° 115° (ESE) 2,742 ? 13.6°
Sets 13:36:00 0° 100° (E) 3,597 ? 13.4°
